Weather in Agia Paraskevi

Greece     39°57′14″N   23°36′30″E
temp.,
°C
wind,
m/s
gust,
m/s
humid.,
%
clouds,
%
prec.,
mm/h
press.,
hPa
HPBL,
m
14 april, wed
wed1400:00+12e33790 0.1 101546
03:00+12e22820 0.1 101425
06:00+12nnw11820 0.0 101325
09:00+14nnw33750 0.0 1014241
12:00+17w345295 0.0 1014590
15:00+18wsw34445 0.0 1013761
18:00+18s3552100 0.0 1012270
21:00+14se337393 0.0 101339
15 april, thu
thu1500:00+13ne22758 0.0 101418
03:00+13nw466778 0.0 1015139
06:00+11nne57760 0.0 1015296
09:00+13n44720 0.0 1017503
12:00+14n44581 0.0 1017745
15:00+16nnw325188 0.0 1016879
18:00+15nne115492 0.0 1015647
21:00+12ese127388 0.0 1016103
16 april, fri
fri1600:00+12s1174100 0.0 101764
03:00+11ne2275100 0.0 1017134
06:00+11ene2282100 0.0 1018167
09:00+13n117356 0.0 1019409
12:00+13nne0169100 0.3 1020703
15:00+15nnw1265100 0.4 1019952
18:00+13nne3472100 0.3 1018480
21:00+12ne2381100 0.8 1018202
17 april, sat
sat1700:00+11ne2279100 0.0 1017154
03:00+11ne2378100 0.0 1016183
06:00+12ene3481100 0.0 1015217
09:00+13sse1177100 0.1 1016419
12:00+14ene457493 0.3 1014791
15:00+14ne567476 0.3 1012591
18:00+14ene467198 0.0 1011510
21:00+13ne458362 0.0 1011243
18 april, sun
sun1800:00+13e228589 0.0 1012144
03:00+13ene1186100 0.0 1012154
06:00+12ne338962 0.0 1012176
09:00+13ese228264 0.0 1013332
12:00+16ene1273100 0.0 1014677
15:00+18ne1167100 0.0 1013620
18:00+17ne117031 0.0 1012471
21:00+14n0185100 0.0 101332